Zurück zum Katalog

STARLINK-5293

AktivKommunikationVLEO
NORAD 55295·PAYLOAD·🇺🇸 United States

Gestartet Jan 19, 2023 von Vandenberg Space Force Base

Loading…

Nächste Überflüge (nächste 24 Stunden)

TLE

AktuellSource: CelesTrak SupGP

Epoche: Sep 14, 2026, 21:12 UTC

1 55295C 23010AC  26257.88381944  .00044844  00000+0  37584-2 0  2578
2 55295  69.9992 287.5608 0003655 267.8058  36.1860 14.98303862    12

Verfolge STARLINK-5293 in Echtzeit mit AllMySat

Download on the App Store